Location: Unspecified
(0.0000°N, 0.0000°E)
Time: 00:14:26
(UTC+02:00)

Ariane H10+ - Visible Passes

Search period start: 29 June 2016 00:00
Search period end: 09 July 2016 00:00
Orbit: 288 x 31426 km, 7.2° (Epoch: 27 June)

Date Brightness Start Highest point End Pass type
(mag) Time Alt. Az. Time Alt. Az. Time Alt. Az.
29 Jun 5.6 04:54:15 64° SE 04:54:15 64° SE 12:53:34 10° E visible
29 Jun 5.3 22:41:14 10° W 22:51:22 37° WSW 22:51:22 37° WSW visible
01 Jul 5.9 12:24:16 10° W 20:33:53 84° S 20:40:57 10° ESE visible
02 Jul 5.9 06:13:50 36° WSW 06:20:35 83° S 14:34:13 10° E visible
04 Jul 6.5 04:03:25 36° ESE 04:03:25 36° ESE 04:24:48 10° E visible
04 Jul 10.9 08:01:42 10° E 10:24:35 19° E 11:40:12 10° E visible
04 Jul 4.2 21:35:02 10° W 21:59:19 63° SSW 22:00:16 55° SSE visible
05 Jul 7.0 07:33:56 10° W 07:54:23 88° N 16:04:01 10° E visible
07 Jul 5.5 05:22:29 69° SW 05:24:13 79° SSE 13:34:02 10° E visible
07 Jul 6.3 23:17:13 10° W 23:19:09 15° WSW 23:19:09 15° WSW visible
